[[{"header":{"parameterUnit":"m.s-1","parameterCategory":1,"la1":30.2991,"la2":30.254,"lo1":-89.0895,"lo2":-89.0444,"dy":0.0017,"dx":0.0017,"nx":28,"ny":28,"refTime":"2024-05-26T09:00:00:Z","depth":0,"parameterNumber":2,"parameterNumberName":"U-component_of_WINDS"},"data":[0,0,0,0,0,0,0,0,0,0,0,0,0,0,0,0,0,0,0,0,0,0,0,0,0,0,0,0,0,0,0,0,0,0,0,0,0,0,0,0,0,0,0,0,0,0,0,0,0,0,0,0,0,0,0,0,0,0,-1.6749,-1.6749,0,-1.677,-1.6771,-1.6771,-1.6774,-1.6774,-1.6774,-1.6773,-1.6796,-1.6796,-1.6797,0,0,0,0,0,0,0,0,0,0,0,0,0,-1.6712,-1.6713,-1.6749,-1.6749,-1.6749,-1.677,-1.6771,-1.6771,-1.6774,-1.6774,-1.6773,-1.6773,-1.6795,-1.6796,-1.6797,0,0,0,0,0,0,0,0,0,0,0,0,0,-1.673,-1.6713,-1.6749,-1.6753,-1.6754,-1.677,-1.6771,-1.6771,-1.6774,-1.6774,-1.6773,-1.6773,-1.6795,-1.6796,-1.6797,-1.681,0,0,-1.6801,-1.6801,0,0,0,0,0,0,0,0,-1.6729,-1.6732,-1.6753,-1.6753,-1.6754,-1.6769,-1.6766,-1.6784,-1.6774,-1.6766,-1.6773,-1.6773,-1.6787,-1.6789,-1.6794,-1.6811,-1.6812,-1.6801,-1.6802,-1.6802,-1.6802,0,0,0,0,0,0,0,-1.6728,-1.6731,-1.6757,-1.6753,-1.6754,-1.6755,-1.6757,-1.6769,-1.6778,-1.6767,-1.6767,-1.677,-1.6787,-1.6792,-1.6794,-1.6813,-1.6801,-1.6802,-1.6803,-1.6803,-1.6844,-1.6844,0,0,0,0,0,0,-1.6726,-1.673,-1.6757,-1.6758,-1.6741,-1.6756,-1.6758,-1.6765,-1.6778,-1.678,-1.677,-1.677,-1.6791,-1.6793,-1.6795,-1.6811,-1.6802,-1.6803,-1.6804,-1.6843,-1.6844,-1.6844,0,0,0,0,0,0,-1.6725,-1.6728,-1.6756,-1.6744,-1.6748,-1.6757,-1.6764,-1.6765,-1.677,-1.678,-1.6782,-1.6773,-1.679,-1.6793,-1.6807,-1.6812,-1.6804,-1.6805,-1.6843,-1.6844,-1.6844,-1.6844,0,0,0,0,0,0,-1.6724,-1.6728,-1.6732,-1.6744,-1.6748,-1.6767,-1.6764,-1.6766,-1.6772,-1.6772,-1.6784,-1.6786,-1.679,-1.6805,-1.6808,-1.6814,-1.6806,-1.6842,-1.6843,-1.6844,-1.6844,-1.6845,-1.6846,0,0,0,0,0,-1.6723,-1.6732,-1.6733,-1.6736,-1.6754,-1.6767,-1.677,-1.6775,-1.6772,-1.6777,-1.6784,-1.6785,-1.6812,-1.6806,-1.681,-1.6816,-1.6842,-1.6843,-1.6844,-1.6843,-1.6845,-1.6846,0,0,0,0,0,0,-1.672,-1.6733,-1.6734,-1.6747,-1.6756,-1.6768,-1.6774,-1.6776,-1.6785,-1.6785,-1.6791,-1.6794,-1.6807,-1.6813,-1.6807,-1.683,-1.6827,-1.6828,-1.6825,-1.6827,-1.6827,-1.6825,-1.6807,0,0,0,0,0,-1.6721,-1.673,-1.6741,-1.6752,-1.6756,-1.6764,-1.677,-1.6774,-1.6783,-1.6787,-1.6794,-1.6804,-1.6814,-1.6821,-1.6831,-1.6845,-1.6848,-1.6851,-1.6852,-1.6853,-1.6854,-1.6863,-1.6864,-1.6847,-1.6847,-1.6847,0,0,-1.6723,-1.6731,-1.6737,-1.6751,-1.6759,-1.6768,-1.6767,-1.6777,-1.6785,-1.6788,-1.6801,-1.6808,-1.6819,-1.6833,-1.684,-1.6838,-1.686,-1.6854,-1.6855,-1.6855,-1.6864,-1.6865,-1.6867,-1.6848,-1.6848,-1.6847,0,0,-1.6731,-1.6738,-1.6748,-1.6756,-1.6767,-1.6773,-1.6775,-1.6787,-1.6791,-1.6804,-1.6807,-1.6817,-1.6835,-1.6843,-1.6849,-1.6862,-1.6864,-1.6866,-1.687,-1.6878,-1.688,-1.6881,-1.6886,-1.6887,-1.6867,-1.6867,-1.6867,0,-1.6732,-1.6747,-1.6753,-1.6763,-1.677,-1.6774,-1.6784,-1.6791,-1.6805,-1.681,-1.6809,-1.6832,-1.6839,-1.6856,-1.6859,-1.6864,-1.6868,-1.6864,-1.6879,-1.688,-1.6882,-1.6886,-1.6888,-1.6867,-1.6867,-1.6867,-1.6867,0,-1.6747,-1.6758,-1.6764,-1.6778,-1.6785,-1.6796,-1.6804,-1.6811,-1.6815,-1.6821,-1.6835,-1.6845,-1.6857,-1.6862,-1.6865,-1.6879,-1.6878,-1.6878,-1.6874,-1.6883,-1.6888,-1.689,-1.6867,-1.6867,-1.6867,-1.6867,0,0,-1.6753,-1.6771,-1.6773,-1.678,-1.6793,-1.6801,-1.6813,-1.6825,-1.6831,-1.6841,-1.6851,-1.6867,-1.6867,-1.6874,-1.6879,-1.6887,-1.6897,-1.6886,-1.6886,-1.6887,-1.6913,-1.6913,-1.6915,-1.6899,-1.6899,-1.6899,-1.6912,0,-1.6763,-1.6782,-1.6788,-1.6805,-1.6814,-1.682,-1.6829,-1.6839,-1.6846,-1.6855,-1.6863,-1.6874,-1.6874,-1.6878,-1.6886,-1.6894,-1.6902,-1.6893,-1.6908,-1.6908,-1.6904,-1.6917,-1.6916,-1.6928,-1.6914,-1.6914,-1.6915,0,-1.6776,-1.6786,-1.6803,-1.6817,-1.6821,-1.683,-1.6842,-1.6851,-1.6863,-1.6868,-1.6876,-1.6881,-1.6893,-1.6891,-1.6908,-1.6902,-1.6909,-1.6914,-1.6914,-1.6915,-1.6911,-1.6918,-1.6932,-1.6933,-1.6918,-1.6917,-1.6917,0,-1.6778,-1.6797,-1.6809,-1.6815,-1.6831,-1.6837,-1.6844,-1.6855,-1.6863,-1.6874,-1.6879,-1.6892,-1.6898,-1.6909,-1.6917,-1.6914,-1.6934,-1.6931,-1.6938,-1.6938,-1.6941,-1.694,-1.6955,-1.6946,-1.6946,-1.6946,-1.6946,0,-1.6788,-1.6798,-1.6811,-1.6818,-1.683,-1.6839,-1.685,-1.6858,-1.6868,-1.6878,-1.6884,-1.6893,-1.6903,-1.6914,-1.6921,-1.6935,-1.6938,-1.6942,-1.6943,-1.6941,-1.694,-1.6944,-1.6944,-1.6947,-1.6947,-1.6947,-1.6946,0,-1.6792,-1.6801,-1.6815,-1.6829,-1.6833,-1.6841,-1.6853,-1.6862,-1.6869,-1.6882,-1.6885,-1.6897,-1.691,-1.6919,-1.6936,-1.6941,-1.6956,-1.6957,-1.6951,-1.6952,-1.6958,-1.6957,-1.6976,-1.6979,-1.6968,-1.6968,-1.6968,0,-1.6797,-1.6805,-1.682,-1.6827,-1.6834,-1.6845,-1.6853,-1.6862,-1.687,-1.6885,-1.6891,-1.6905,-1.6916,-1.6937,-1.6947,-1.6961,-1.6962,-1.6968,-1.6964,-1.6962,-1.6962,-1.6961,-1.6962,-1.6968,-1.6968,-1.6968,-1.6968,0,-1.6805,-1.6809,-1.682,-1.6833,-1.6842,-1.6852,-1.6863,-1.6869,-1.688,-1.6889,-1.6902,-1.6911,-1.6929,-1.6942,-1.6957,-1.6965,-1.6969,-1.697,-1.6972,-1.6969,-1.6965,-1.6967,-1.6952,-1.6969,-1.6969,-1.6969,-1.6969,-1.6969,-1.6809,-1.6817,-1.6829,-1.6841,-1.685,-1.686,-1.6869,-1.6878,-1.6889,-1.6904,-1.6909,-1.6923,-1.6936,-1.6956,-1.6964,-1.6976,-1.6976,-1.6979,-1.698,-1.698,-1.698,-1.6964,-1.6979,-1.6979,-1.6979,-1.6979,-1.6979,0,-1.6818,-1.6826,-1.6837,-1.6852,-1.6862,-1.6865,-1.6877,-1.6885,-1.6898,-1.6909,-1.692,-1.6936,-1.695,-1.6962,-1.6976,-1.6983,-1.6986,-1.6987,-1.6986,-1.6988,-1.6979,-1.6976,-1.6985,-1.6985,-1.6985,-1.6985,-1.6985,-1.6985,-1.6823,-1.6836,-1.6842,-1.686,-1.6869,-1.6882,-1.6889,-1.6899,-1.6908,-1.6926,-1.6937,-1.6945,-1.6957,-1.6972,-1.6985,-1.6989,-1.6993,-1.6994,-1.6998,-1.6989,-1.6988,-1.6988,-1.6984,-1.6995,-1.6995,-1.7005,-1.7005,-1.7005]},{"header":{"parameterUnit":"m.s-1","parameterCategory":1,"la1":30.2991,"la2":30.254,"lo1":-89.0895,"lo2":-89.0444,"dy":0.0017,"dx":0.0017,"nx":28,"ny":28,"refTime":"2024-05-26T09:00:00:Z","depth":0,"parameterNumber":3,"parameterNumberName":"V-component_of_WINDS"},"data":[0,0,0,0,0,0,0,0,0,0,0,0,0,0,0,0,0,0,0,0,0,0,0,0,0,0,0,0,0,0,0,0,0,0,0,0,0,0,0,0,0,0,0,0,0,0,0,0,0,0,0,0,0,0,0,0,0,0,5.4036,5.4036,0,5.406,5.406,5.406,5.4037,5.4036,5.4036,5.4035,5.4057,5.4058,5.4059,0,0,0,0,0,0,0,0,0,0,0,0,0,5.397,5.3971,5.4036,5.4036,5.4036,5.406,5.406,5.406,5.4038,5.4036,5.4035,5.4034,5.4056,5.4058,5.4059,0,0,0,0,0,0,0,0,0,0,0,0,0,5.3997,5.3972,5.4035,5.4028,5.4027,5.406,5.406,5.406,5.4038,5.4036,5.4035,5.4034,5.4056,5.4058,5.406,5.41,0,0,5.4066,5.4067,0,0,0,0,0,0,0,0,5.3995,5.3999,5.4029,5.4028,5.4028,5.4044,5.4045,5.4073,5.4038,5.4034,5.4035,5.4033,5.4053,5.4056,5.4063,5.4101,5.4102,5.4066,5.4068,5.4069,5.4069,0,0,0,0,0,0,0,5.3993,5.3998,5.4045,5.4029,5.4029,5.4023,5.4025,5.405,5.4051,5.4034,5.4032,5.4036,5.4053,5.4061,5.4063,5.4102,5.4066,5.4068,5.407,5.407,5.4179,5.418,0,0,0,0,0,0,5.3992,5.3996,5.4044,5.4046,5.4008,5.4025,5.4028,5.404,5.405,5.4051,5.4037,5.4035,5.4058,5.4061,5.4064,5.4115,5.4069,5.4071,5.4072,5.4177,5.4179,5.4181,0,0,0,0,0,0,5.3991,5.3997,5.4043,5.4021,5.4026,5.4028,5.4042,5.4041,5.405,5.4053,5.4052,5.4045,5.4057,5.4061,5.4092,5.4115,5.4072,5.4073,5.4175,5.4178,5.418,5.4215,0,0,0,0,0,0,5.3989,5.3997,5.4012,5.4021,5.4028,5.4071,5.4043,5.4043,5.4054,5.4051,5.406,5.406,5.4056,5.4089,5.4094,5.4117,5.4075,5.4173,5.4176,5.4179,5.4212,5.4218,5.4224,0,0,0,0,0,5.3987,5.4019,5.4012,5.4018,5.4046,5.4073,5.4076,5.4071,5.4055,5.4071,5.4074,5.406,5.4112,5.4093,5.4098,5.4122,5.4172,5.4175,5.4179,5.4209,5.4217,5.4224,0,0,0,0,0,0,5.4009,5.402,5.4013,5.4049,5.406,5.4069,5.4088,5.4079,5.4094,5.4091,5.4084,5.4086,5.412,5.4124,5.4103,5.4164,5.4139,5.4144,5.416,5.4168,5.4174,5.4172,5.4077,0,0,0,0,0,5.4019,5.404,5.4047,5.4078,5.4085,5.4086,5.4097,5.4093,5.4104,5.4108,5.4113,5.4124,5.4143,5.4155,5.4172,5.4212,5.4215,5.4231,5.4237,5.4242,5.4247,5.4272,5.428,5.4193,5.4193,5.4193,0,0,5.4038,5.4046,5.4059,5.4083,5.4092,5.4114,5.409,5.4113,5.413,5.4111,5.4142,5.4146,5.4158,5.4195,5.4211,5.4199,5.4272,5.4247,5.4251,5.4253,5.4276,5.4285,5.4292,5.4195,5.4195,5.4194,0,0,5.4085,5.4092,5.4121,5.4131,5.4145,5.4146,5.4153,5.4164,5.4167,5.4198,5.4186,5.4205,5.4237,5.4247,5.4257,5.4312,5.4301,5.4318,5.4349,5.4374,5.4381,5.4387,5.4409,5.4417,5.4322,5.4322,5.4322,0,5.4107,5.4141,5.4136,5.4163,5.4175,5.4161,5.4191,5.42,5.4219,5.4227,5.4214,5.4257,5.4263,5.4304,5.4318,5.4325,5.4334,5.4317,5.438,5.4386,5.4392,5.4413,5.4421,5.4324,5.4324,5.4324,5.4324,0,5.4168,5.4192,5.4213,5.4235,5.4249,5.4276,5.4277,5.4292,5.4288,5.4291,5.4324,5.4332,5.4353,5.4362,5.4356,5.4403,5.4396,5.4381,5.4357,5.4402,5.4423,5.443,5.4327,5.4327,5.4326,5.4325,0,0,5.4228,5.425,5.4258,5.4269,5.4286,5.4304,5.4332,5.4354,5.4368,5.4382,5.4407,5.4436,5.4424,5.4435,5.443,5.4452,5.4499,5.4435,5.4435,5.4449,5.4555,5.4567,5.4576,5.4492,5.4493,5.4495,5.4555,0,5.4278,5.4328,5.4328,5.4374,5.4398,5.4387,5.4412,5.4425,5.4429,5.445,5.4453,5.4476,5.4457,5.4464,5.4484,5.4489,5.4521,5.4484,5.4516,5.4517,5.4515,5.4586,5.4599,5.4655,5.4562,5.4563,5.4564,0,5.4342,5.4362,5.4412,5.4429,5.4439,5.4461,5.4483,5.4503,5.4518,5.452,5.4534,5.4528,5.4557,5.4532,5.4574,5.4549,5.4562,5.4567,5.4569,5.4573,5.4544,5.4594,5.4672,5.4682,5.4576,5.4575,5.4574,0,5.4385,5.4423,5.4459,5.4469,5.4488,5.4505,5.4514,5.4528,5.4543,5.4562,5.4572,5.4593,5.4605,5.4622,5.4622,5.4603,5.4666,5.4639,5.4669,5.467,5.4684,5.4683,5.4767,5.4689,5.4689,5.4689,5.4688,0,5.4441,5.4473,5.4479,5.4501,5.4538,5.4537,5.4572,5.4579,5.4593,5.4617,5.4608,5.463,5.4628,5.4651,5.4651,5.4688,5.4693,5.4696,5.4696,5.4698,5.4698,5.4707,5.4704,5.4691,5.469,5.469,5.4689,0,5.4495,5.45,5.4539,5.4556,5.4561,5.4587,5.4602,5.4623,5.4628,5.4659,5.4666,5.4672,5.47,5.4702,5.4732,5.4732,5.4777,5.4772,5.4773,5.4773,5.4803,5.4801,5.4897,5.4911,5.4822,5.4823,5.4824,0,5.4531,5.4556,5.4577,5.4594,5.4605,5.463,5.4647,5.4647,5.4664,5.4686,5.4706,5.4732,5.4754,5.4798,5.4806,5.483,5.4826,5.4858,5.4829,5.4832,5.483,5.4829,5.4833,5.4864,5.4865,5.4866,5.4866,0,5.4597,5.46,5.4624,5.465,5.467,5.469,5.4709,5.4723,5.4726,5.4745,5.4775,5.4792,5.4825,5.4852,5.4877,5.4885,5.4878,5.4876,5.4884,5.4887,5.4888,5.4891,5.479,5.4873,5.4873,5.4872,5.4872,5.4872,5.4645,5.4668,5.4688,5.4716,5.4731,5.475,5.4773,5.4781,5.4806,5.4835,5.4833,5.4866,5.4884,5.4916,5.4927,5.4953,5.4942,5.4954,5.4957,5.4961,5.4965,5.4883,5.4957,5.4957,5.4957,5.4956,5.4956,0,5.4713,5.4726,5.4752,5.478,5.4803,5.4795,5.4816,5.4836,5.4866,5.4883,5.4906,5.4941,5.4969,5.498,5.5007,5.5026,5.5023,5.5033,5.5032,5.5035,5.4972,5.4963,5.5035,5.5035,5.5035,5.5035,5.5035,5.5035,5.4751,5.4791,5.4796,5.4844,5.4857,5.4891,5.4904,5.4922,5.4937,5.4977,5.5001,5.5008,5.5024,5.5053,5.5078,5.5081,5.5092,5.5105,5.5106,5.5047,5.5039,5.5031,5.5023,5.5106,5.5107,5.5167,5.5167,5.5168]}]]